Weather in Bira

Russia / Jewish Autonomous Oblast     49°00′17″N   132°28′17″E
temp.,
°C
wind,
m/s
gust,
m/s
humid.,
%
clouds,
%
prec.,
mm/h
press.,
hPa
HPBL,
m
19 may, wed
wed1901:00+11wnw239498 0.5 100261
04:00+11n1294100 0.9 100151
07:00+12n1191100 0.2 100283
10:00+17s126898 0.3 1001669
13:00+20wsw3547100 0.1 10011935
16:00+23w573013 0.1 10012952
19:00+21w36375 0.0 1002777
22:00+13nnw11606 0.0 100414
20 may, thu
thu2001:00+11ne11685 0.0 100412
04:00+10ne11766 0.1 100310
07:00+12e1187100 0.8 100370
10:00+14se118697 1.5 1001318
13:00+20wnw4757100 0.1 10011364
16:00+23wnw46390 0.1 10021967
19:00+21nw35430 0.0 1004943
22:00+12nnw22697 0.0 100624
21 may, fri
fri2101:00+10n11730 0.0 100814
04:00+9nnw11710 0.0 100814
07:00+12ese11613 0.0 100881
10:00+18ese22440 0.0 1007568
13:00+25se23270 0.0 10061570
16:00+26ssw24270 0.0 10032097
19:00+24sse24410 0.0 1003286
22:00+16ne11710 0.0 100511
22 may, sat
sat2201:00+14n11745 0.0 100512
04:00+13ene11754 0.0 100511
07:00+15ese12715 0.0 1006110
10:00+19ese35470 0.0 1006850
13:00+22se444083 0.1 10051149
16:00+24se33395 0.1 10041336
19:00+22ese23484 0.0 10041017
22:00+15e21755 0.0 100613
23 may, sun
sun2301:00+13ene22844 0.0 100732
04:00+12ne228375 0.0 100632
07:00+13e2772100 0.1 1005385
10:00+18ese356591 0.3 1003671
13:00+19s2777100 0.5 1002723
16:00+16se1296100 6.1 100192
19:00+17ssw2691100 0.8 1000255
22:00+16ssw31094100 3.3 1000413